Home   Weather   Lawrence   Past weeks

Flag for USA Past Weather in Lawrence, Kansas, USA — Yesterday and Last 2 Weeks

Now
77 °F

Clear.


Feels Like: 79 °F
Forecast: 75 / 90 °F
Wind: 8 mph from South

Location: Lawrence Municipal Airport

Current Time: Aug 21, 2017 at 1:40:31 am

Latest Report: Aug 21, 2017 at 12:52 am


Visibility: 10 mi

Pressure: 29.99 "Hg

Humidity: 77%

Dew Point: 69 °F

Location of LawrenceLocation

Past Weather in Lawrence — Graph

°F

Lawrence Temperature Yesterday

Maximum temperature yesterday: 89 °F (at 2:52 pm)
Minimum temperature yesterday: 68 °F (at 6:52 am)
Average temperature yesterday: 80 °F

High & Low Weather Summary for the Past Weeks

 TemperatureHumidityPressure
High92 °F (Aug 19, 4:52 pm)100% (Aug 5, 11:23 pm)30.20 "Hg (Aug 5, 11:23 pm)
Low58 °F (Aug 8, 5:52 am)45% (Aug 17, 4:52 pm)29.76 "Hg (Aug 16, 4:52 pm)
Average73 °F83%29.96 "Hg
* Reported Aug 5 11:23 pm — Aug 20 11:52 pm, Lawrence. Weather by CustomWeather, © 2017

Note: Actual official high and low records may vary slightly from our data, if they occured in-between our weather recording intervals... More about our weather records

Advertising

Lawrence Weather History for the Previous 24 Hours

Scroll right to see more
 ConditionsComfort  
Time TempWeatherWind HumidityBarometerVisibility
11:52 pm
Sun, Aug 20
78 °FClear.9 mph71%30.00 "Hg10 mi
10:52 pm79 °FClear.10 mph72%29.99 "Hg10 mi
9:52 pm82 °FPassing clouds.13 mph79%29.97 "Hg10 mi
8:52 pm81 °FClear.7 mph88%29.94 "Hg10 mi
7:52 pm83 °FSunny.6 mph82%29.92 "Hg10 mi
6:52 pm87 °FSunny.9 mph69%29.92 "Hg10 mi
6:02 pm88 °FSunny.10 mph65%29.95 "Hg10 mi
5:30 pm89 °FSunny.13 mph63%29.95 "Hg10 mi
5:15 pm89 °FThundershowers. Sunny.13 mph61%29.96 "Hg10 mi
4:52 pm89 °FSunny.13 mph61%29.93 "Hg10 mi
3:52 pm87 °FPartly sunny.8 mph67%29.95 "Hg10 mi
2:52 pm89 °FSunny.10 mph61%29.94 "Hg10 mi
1:52 pm88 °FSunny.16 mph61%29.93 "Hg10 mi
12:52 pm86 °FSunny.15 mph61%29.95 "Hg10 mi
11:52 am84 °FSunny.20 mph63%29.96 "Hg10 mi
10:52 am80 °FSunny.16 mph69%29.98 "Hg10 mi
9:52 am76 °FPassing clouds.9 mph80%29.99 "Hg10 mi
8:52 am73 °FScattered clouds.6 mph88%30.00 "Hg10 mi
7:52 am69 °FSunny.6 mph96%29.97 "Hg10 mi
6:52 am68 °FScattered clouds.8 mph96%29.96 "Hg10 mi
6:42 am69 °FPartly sunny.8 mph96%29.99 "Hg10 mi
6:05 am70 °FThundershowers. Mostly cloudy.9 mph93%29.99 "Hg10 mi
5:52 am71 °FThundershowers. Mostly cloudy.7 mph90%29.96 "Hg10 mi
5:41 am72 °FThunderstorms. Mostly cloudy.7 mph84%29.98 "Hg10 mi
5:16 am75 °FThunderstorms. Overcast.21 mph74%29.96 "Hg10 mi
4:58 am79 °FThundershowers. Overcast.15 mph77%29.96 "Hg10 mi
3:52 am79 °FClear.10 mph90%29.87 "Hg10 mi
2:52 am79 °FPassing clouds.6 mph90%29.88 "Hg10 mi
1:52 am78 °FClear.7 mph90%29.86 "Hg10 mi
Weather by CustomWeather, © 2017

See weather overviewHow to use our weather pages